DELTA 1 DEB, 10660

Orbit data source: Space-Track

DELTA 1 DEB, 10660 is space debris in LEO originally from a launch on Thu, 29 Jul 1976 UTC launched from the Air Force Western Test Range (AFWTR). Debris objects in space refer to the collection of defunct objects orbiting the Earth. Examples of debris include non-operational satellites, rocket bodies, and fragments generated from explosions, collisions, or faulty payload assembly.

Loading next visibility...
Identifier
10660, 1976-077W
Orbit
LEO
Country
Flag of USUS
Related business
Manufacturer
Unknown
Mission
Spacecraft
Bus & Motor
Unknown
Mass
Unknown
Launch date (UTC)
1976-07-29 (50 years ago)
Launch vehicle
Unknown
Launch site
Air Force Western Test Range (AFWTR)
Object type
Payload
Rocket body
Debris
Shape & HBR
Unknown shape, 0.2 m
Radar Cross Section
Medium (>0.1 m² and <1 m²)

Expand to show TLE details & history
Last TLE update: 9 hours ago

TLE from 9 hours ago
0 DELTA 1 DEB
1 10660U 76077W   26036.47411550  .00000067  00000-0  15831-2 0  9997
2 10660 102.2700 296.9912 0394715 240.8546 299.6253 11.67434241108719
Epoch: 2026-02-05T11:22Z
TLE epoch observation values (Epoch: 2026-02-05T11:22:43.579Z)
Latitude
3.38309°
Longitude
171.41691°
Altitude
1,681.882 km
Speed
7.098 km/s
True Right ascension
07h 50m 53s
True Declination
3° 21' 55"
Sunlit
Object was in full shadow at epoch
Visualization orbit readout
Latitude
Unknown
Longitude
Unknown
Altitude
Unknown
Speed
Unknown
Apparent Right ascension
Unknown
Apparent Declination
Unknown
Sunlit
N/A
Visualization observer readout
Local Sidereal Time
22:10:33
Azimuth
Unknown
Elevation
Unknown
Doppler factor
Unknown
Orbital elements
Apogee altitude
2,151.622 km
Perigee altitude
1,503.827 km
Semi-major axis
8,205.861 km
Eccentricity
0.03947
Inclination
102.27°
RAAN
296.9912°
Arg. of periapsis
240.8546°
True anomaly
295.59861°
Mean anomaly
299.6253°
Eccentric anomaly
297.6215°
Mean motion
2.91983 °/min
Orbital period
123.3 mins
BSTAR
0.0015831
Loading maneuver chart data...
Computing Atmospheric mass density...
Loading historical data...
Loading historical data...
Loading historical data...
Loading historical data...
Loading historical data...
Loading historical data...
Loading historical data...

Documentation

Showing up to 5 results
|